EW0890 Weather Reports


time (UTC)temp
F
wind
direction
speed
knots
gust
knots
rain 1hr
in
rain 24hr
in
rain mn
in
humidity
%
barometer
mb
20260509182504 73 276 13.0 20.9 0.00 0.00 0.00 46 1006.2
20260509182010 72 282 13.0 20.9 0.00 0.00 0.00 52 1006.1
20260509181007 72 269 13.9 20.0 0.00 0.00 0.00 52 1006.2
20260509180508 72 249 12.2 20.0 0.00 0.00 0.00 51 1006.2
20260509175508 72 257 13.9 18.2 0.00 0.00 0.00 53 1006.2
20260509175008 71 250 13.9 18.2 0.00 0.00 0.00 56 1006.2
20260509174008 71 253 13.0 17.4 0.00 0.03 0.00 57 1006.1
20260509173509 70 250 10.4 19.1 0.00 0.06 0.00 60 1006.1
20260509173024 70 267 14.8 19.1 0.00 0.07 0.00 58 1005.9
20260509172512 70 234 12.2 19.1 0.00 0.08 0.00 61 1005.9
20260509172013 70 253 12.2 18.2 0.00 0.08 0.00 61 1006.0
20260509171003 69 257 13.0 19.1 0.00 0.09 0.00 63 1006.0
20260509170504 69 268 13.0 19.1 0.00 0.09 0.00 63 1006.1
20260509165508 68 262 15.6 20.0 0.00 0.10 0.00 67 1006.2
20260509165005 68 262 13.9 20.0 0.00 0.10 0.00 67 1006.1
20260509164006 67 267 14.8 19.1 0.00 0.10 0.00 68 1006.0
20260509163513 67 259 14.8 19.1 0.00 0.10 0.00 69 1006.1
20260509162008 66 261 13.9 20.0 0.00 0.10 0.00 73 1005.9
20260509161524 66 252 13.0 20.0 0.00 0.10 0.00 73 1005.9
20260509161014 66 274 13.9 18.2 0.00 0.10 0.00 74 1005.8
20260509160510 66 255 14.8 18.2 0.00 0.10 0.00 75 1005.8
20260509160012 65 248 11.3 19.1 0.00 0.10 0.00 76 1005.9
20260509155504 65 250 15.6 19.1 0.00 0.10 0.00 77 1006.0
20260509155006 65 250 13.0 20.0 0.00 0.10 0.00 77 1005.9
20260509154522 65 253 13.0 20.0 0.00 0.10 0.00 76 1005.9
20260509154009 64 272 11.3 18.2 0.00 0.10 0.00 82 1006.0
20260509153506 64 255 13.0 18.2 0.00 0.10 0.00 79 1006.1
20260509153023 64 269 13.0 17.4 0.00 0.10 0.00 80 1006.0
20260509152512 63 248 13.9 17.4 0.00 0.10 0.00 79 1005.8
20260509152008 63 254 13.9 17.4 0.00 0.10 0.00 79 1005.7
20260509151006 63 243 11.3 14.8 0.00 0.10 0.00 83 1005.8
20260509150509 62 234 11.3 13.9 0.00 0.10 0.00 81 1006.0
20260509150026 61 267 11.3 16.5 0.00 0.10 0.00 82 1006.0
20260509145510 61 250 13.0 16.5 0.00 0.10 0.00 82 1006.2
20260509145011 61 256 11.3 17.4 0.00 0.10 0.00 86 1006.4
20260509144519 60 249 13.0 17.4 0.00 0.10 0.00 84 1006.4
20260509144003 60 248 12.2 15.6 0.00 0.10 0.00 86 1006.3
20260509143508 60 231 12.2 17.4 0.00 0.10 0.00 86 1006.4
20260509143006 59 245 13.0 19.1 0.00 0.10 0.00 87 1006.4
20260509142503 59 245 12.2 19.1 0.00 0.10 0.00 89 1006.3
20260509142001 59 232 13.0 18.2 0.00 0.10 0.00 90 1006.2
20260509141508 58 240 12.2 17.4 0.00 0.10 0.00 90 1006.1
20260509141005 58 237 13.9 17.4 0.00 0.10 0.00 90 1006.0
20260509140503 58 247 14.8 17.4 0.00 0.10 0.00 91 1005.9
20260509140009 57 257 13.0 15.6 0.00 0.10 0.00 93 1006.0
20260509135507 57 255 13.9 15.6 0.00 0.10 0.00 93 1005.9
20260509135004 56 253 11.3 14.8 0.00 0.10 0.00 94 1006.0
20260509134510 56 250 11.3 17.4 0.00 0.10 0.00 95 1005.9
20260509134004 55 257 13.9 17.4 0.00 0.10 0.00 95 1005.9
20260509133512 55 241 13.9 17.4 0.00 0.10 0.00 95 1006.0
20260509133017 55 241 13.9 17.4 0.00 0.10 0.00 96 1005.9
20260509132509 54 234 13.0 16.5 0.00 0.10 0.00 96 1006.0
20260509132007 54 245 14.8 16.5 0.00 0.10 0.00 97 1005.9
20260509131504 54 226 12.2 16.5 0.00 0.10 0.00 97 1006.0
20260509131002 54 250 12.2 16.5 0.00 0.10 0.00 98 1005.9
20260509130504 53 238 13.0 15.6 0.00 0.10 0.00 98 1005.9
20260509130006 53 248 12.2 15.6 0.00 0.10 0.00 98 1006.0
20260509125504 52 247 12.2 16.5 0.00 0.10 0.00 98 1006.0
20260509125007 52 238 13.0 16.5 0.00 0.10 0.00 98 1005.8
20260509124512 52 236 13.0 16.5 0.00 0.10 0.00 98 1005.8
20260509124004 52 240 13.0 16.5 0.00 0.10 0.00 98 1005.8
20260509123504 52 229 13.0 16.5 0.00 0.10 0.00 98 1005.8
20260509123016 52 230 13.0 15.6 0.00 0.10 0.00 98 1005.8
20260509122505 52 248 12.2 14.8 0.00 0.10 0.00 98 1005.7
20260509122004 52 232 12.2 13.9 0.00 0.10 0.00 98 1005.7
20260509121518 52 241 11.3 13.9 0.00 0.10 0.00 98 1005.7
20260509121011 52 222 10.4 13.0 0.00 0.10 0.00 98 1005.7
20260509120507 52 235 10.4 13.0 0.00 0.10 0.00 98 1005.7
20260509120004 52 236 10.4 13.0 0.00 0.10 0.00 98 1005.7
20260509115504 52 239 10.4 13.0 0.00 0.10 0.00 98 1005.7
20260509115004 52 236 9.6 13.0 0.00 0.10 0.00 98 1005.7
20260509114508 52 225 10.4 12.2 0.00 0.10 0.00 98 1005.7
20260509114004 52 226 9.6 14.8 0.00 0.10 0.00 98 1005.7
20260509113504 53 228 10.4 14.8 0.00 0.10 0.00 98 1005.6
20260509113012 53 248 10.4 13.9 0.00 0.10 0.00 98 1005.6
20260509112503 53 244 9.6 14.8 0.00 0.10 0.00 98 1005.6
20260509112004 53 231 11.3 14.8 0.00 0.10 0.00 98 1005.6
20260509111520 53 248 12.2 14.8 0.00 0.10 0.00 98 1005.5
20260509111006 53 233 10.4 13.9 0.00 0.10 0.00 98 1005.7
20260509110504 53 244 9.6 12.2 0.00 0.10 0.00 98 1005.7
20260509110024 53 242 8.7 12.2 0.00 0.10 0.00 98 1005.7
20260509105508 53 234 9.6 12.2 0.00 0.10 0.00 98 1005.7
20260509105009 53 239 8.7 12.2 0.00 0.10 0.00 98 1005.8
20260509104505 53 248 9.6 12.2 0.00 0.10 0.00 98 1005.8
20260509104002 53 233 9.6 11.3 0.00 0.10 0.00 98 1005.9
20260509103502 53 251 8.7 11.3 0.00 0.10 0.00 98 1005.9
20260509103016 53 238 8.7 11.3 0.00 0.10 0.00 98 1006.0
20260509102505 53 254 7.0 10.4 0.00 0.10 0.00 98 1006.0
20260509102004 53 258 7.8 9.6 0.00 0.10 0.00 98 1005.9
20260509101516 53 248 7.0 10.4 0.00 0.10 0.00 98 1005.8
20260509101004 53 242 7.8 10.4 0.00 0.10 0.00 98 1005.8
20260509100506 53 243 7.0 10.4 0.00 0.10 0.00 98 1005.8
20260509100022 53 239 6.1 10.4 0.00 0.10 0.00 98 1005.9
20260509095507 53 231 7.8 9.6 0.00 0.10 0.00 98 1005.9
20260509095010 53 246 7.0 9.6 0.00 0.10 0.00 98 1005.9
20260509094524 53 239 7.0 9.6 0.00 0.10 0.00 98 1006.0
20260509094009 53 244 7.0 8.7 0.00 0.10 0.00 98 1006.0
20260509093508 52 245 6.1 9.6 0.00 0.10 0.00 98 1006.0
20260509093006 52 236 7.0 9.6 0.00 0.10 0.00 98 1006.1
20260509092507 52 239 7.0 9.6 0.00 0.10 0.00 97 1006.0
20260509092003 52 234 7.8 9.6 0.00 0.10 0.00 97 1005.9
20260509091512 52 243 7.0 10.4 0.00 0.10 0.00 97 1006.0
20260509091003 52 244 7.0 10.4 0.00 0.10 0.00 97 1005.9
20260509090507 52 249 7.8 10.4 0.00 0.10 0.00 97 1005.9
20260509090018 52 235 7.8 10.4 0.00 0.10 0.00 97 1005.9
20260509085503 52 238 7.8 10.4 0.00 0.10 0.00 97 1006.0
20260509085003 52 234 7.8 10.4 0.00 0.10 0.00 97 1006.1
20260509084533 52 226 5.2 7.0 0.00 0.10 0.00 97 1006.2
20260509084011 51 242 5.2 7.0 0.00 0.10 0.00 97 1006.1
20260509083507 51 236 5.2 7.8 0.00 0.10 0.00 97 1006.1
20260509083033 51 226 5.2 8.7 0.00 0.10 0.00 97 1006.1
20260509082511 52 227 5.2 8.7 0.00 0.10 0.00 97 1006.1
20260509082010 52 232 6.1 8.7 0.00 0.10 0.00 97 1006.1
20260509081528 52 230 5.2 8.7 0.00 0.10 0.00 97 1006.2
20260509081004 52 226 6.1 8.7 0.00 0.10 0.00 97 1006.2
20260509080503 52 236 6.1 8.7 0.00 0.10 0.00 97 1006.3
20260509080012 52 223 6.1 8.7 0.00 0.10 0.00 97 1006.2
20260509075504 52 223 6.1 8.7 0.00 0.10 0.00 97 1006.2
20260509075004 52 222 7.0 9.6 0.00 0.10 0.00 97 1006.2
20260509074516 52 227 7.0 9.6 0.00 0.10 0.00 97 1006.2
20260509074004 51 233 7.8 10.4 0.00 0.10 0.00 97 1006.2
20260509073507 51 223 7.0 10.4 0.00 0.10 0.00 97 1006.0
20260509073023 51 226 7.0 9.6 0.00 0.10 0.00 96 1006.2
20260509072508 51 231 7.8 10.4 0.00 0.10 0.00 96 1006.2
20260509072010 51 228 7.8 10.4 0.00 0.10 0.00 96 1006.2
20260509071522 51 207 7.8 10.4 0.00 0.10 0.00 96 1006.1
20260509071010 51 208 7.8 10.4 0.00 0.10 0.00 96 1006.0
20260509070026 51 212 7.8 10.4 0.00 0.10 0.00 95 1006.1
20260509065505 51 206 7.8 10.4 0.00 0.10 0.00 95 1006.2
20260509065003 51 210 7.0 10.4 0.00 0.10 0.00 95 1006.2
20260509064521 52 203 7.0 9.6 0.00 0.10 0.00 95 1006.4
20260509064006 51 224 7.0 8.7 0.00 0.10 0.00 95 1006.4
20260509063508 52 219 4.3 7.0 0.00 0.10 0.00 95 1006.4
20260509063017 52 242 4.3 6.1 0.00 0.10 0.00 95 1006.5
20260509062509 52 250 5.2 6.1 0.00 0.10 0.00 95 1006.5
20260509062009 52 250 4.3 6.1 0.00 0.10 0.00 95 1006.5
20260509061524 52 252 5.2 6.1 0.00 0.10 0.00 94 1006.4
20260509061007 52 245 5.2 6.1 0.00 0.10 0.00 94 1006.4
20260509060508 52 250 5.2 7.0 0.00 0.10 0.00 95 1006.5
20260509060025 52 248 5.2 7.8 0.00 0.10 0.00 94 1006.5
20260509055510 52 248 5.2 7.8 0.00 0.10 0.00 94 1006.6
20260509055008 52 248 5.2 7.0 0.00 0.10 0.00 94 1006.7
20260509054526 52 245 5.2 7.0 0.00 0.10 0.00 94 1006.7
20260509054005 52 240 4.3 7.0 0.00 0.10 0.00 93 1006.8
20260509053507 52 255 5.2 7.0 0.00 0.10 0.00 93 1006.9
20260509053016 53 248 6.1 7.8 0.00 0.10 0.00 93 1006.8
20260509052505 53 254 6.1 7.8 0.00 0.10 0.00 94 1006.9
20260509052008 52 240 6.1 7.8 0.00 0.10 0.00 94 1006.8
20260509051519 52 256 6.1 7.0 0.00 0.10 0.00 93 1006.9
20260509051007 52 252 5.2 6.1 0.00 0.10 0.00 93 1006.9
20260509050509 53 251 5.2 7.0 0.00 0.10 0.00 93 1007.0
20260509050035 53 255 5.2 7.0 0.00 0.10 0.00 93 1007.0
20260509045508 53 250 5.2 7.0 0.00 0.10 0.10 93 1007.0
20260509045011 53 243 5.2 7.0 0.00 0.10 0.10 93 1007.0
20260509044527 53 240 5.2 6.1 0.00 0.10 0.10 92 1007.1
20260509044012 53 272 4.3 7.0 0.00 0.10 0.10 92 1007.1
20260509043507 53 245 5.2 7.0 0.00 0.10 0.10 92 1007.0
20260509043032 53 257 5.2 7.8 0.00 0.10 0.10 92 1007.0
20260509042004 53 238 6.1 9.6 0.00 0.10 0.10 92 1006.9
20260509041004 53 221 6.1 8.7 0.00 0.11 0.10 93 1007.0
20260509040503 53 231 5.2 8.7 0.00 0.12 0.10 92 1007.0
20260509040010 53 239 6.1 7.0 0.00 0.12 0.10 92 1007.2
20260509035504 53 233 5.2 8.7 0.00 0.12 0.10 92 1007.3
20260509034510 54 225 6.1 8.7 0.00 0.12 0.10 92 1007.5
20260509033504 54 244 5.2 8.7 0.00 0.12 0.10 92 1007.6
20260509033007 54 227 6.1 8.7 0.00 0.12 0.10 92 1007.6
20260509032005 54 249 6.1 8.7 0.00 0.12 0.10 92 1007.6
20260509031004 54 245 6.1 8.7 0.00 0.12 0.10 92 1007.6
20260509030504 54 247 6.1 8.7 0.00 0.12 0.10 92 1007.7
20260509030014 54 243 6.1 9.6 0.00 0.12 0.10 91 1007.7
20260509025503 54 240 6.1 9.6 0.00 0.12 0.10 91 1007.6
20260509025004 54 233 6.1 8.7 0.00 0.12 0.10 91 1007.6
20260509024511 54 243 7.0 9.6 0.00 0.12 0.10 91 1007.6
20260509024004 54 238 6.1 9.6 0.00 0.12 0.10 91 1007.6
20260509023506 54 221 5.2 7.8 0.00 0.12 0.10 91 1007.5
20260509023016 54 238 6.1 7.8 0.00 0.12 0.10 91 1007.5
20260509021510 54 237 6.1 8.7 0.00 0.12 0.10 90 1007.7
20260509021004 55 236 6.1 8.7 0.00 0.12 0.10 90 1007.6
20260509015504 55 240 5.2 7.8 0.00 0.12 0.10 90 1007.6
20260509015005 54 241 5.2 7.0 0.00 0.12 0.10 90 1007.5
20260509014510 54 239 4.3 6.1 0.00 0.12 0.10 90 1007.5
20260509014004 54 236 4.3 6.1 0.00 0.12 0.10 90 1007.5
20260509013504 54 249 3.5 5.2 0.00 0.12 0.10 90 1007.5
20260509013013 54 248 3.5 5.2 0.00 0.12 0.10 89 1007.5
20260509012503 55 256 3.5 5.2 0.00 0.12 0.10 89 1007.5
20260509012005 55 258 4.3 5.2 0.00 0.12 0.10 89 1007.4
20260509011508 55 250 4.3 5.2 0.00 0.12 0.10 88 1007.3
20260509010504 55 243 3.5 5.2 0.00 0.12 0.10 88 1007.2
20260509005504 56 254 4.3 7.0 0.00 0.12 0.10 87 1007.0
20260509005003 56 244 5.2 8.7 0.00 0.12 0.10 86 1007.0
20260509004524 56 240 6.1 8.7 0.00 0.12 0.10 86 1007.0
20260509004004 57 255 6.1 9.6 0.00 0.12 0.10 86 1007.0
20260509003504 57 249 7.0 9.6 0.00 0.12 0.10 86 1007.0
20260509003012 57 245 7.0 11.3 0.00 0.12 0.10 86 1007.0
20260509002507 57 250 7.8 11.3 0.00 0.12 0.10 86 1007.2
20260509002003 57 239 7.8 12.2 0.00 0.12 0.10 86 1007.2
20260509001512 57 243 8.7 13.9 0.00 0.12 0.10 85 1007.3
20260509001006 57 241 9.6 13.9 0.00 0.12 0.10 85 1007.2
20260509000503 58 236 10.4 13.9 0.00 0.12 0.10 85 1007.3
20260509000011 58 246 9.6 13.0 0.00 0.12 0.10 84 1007.3
20260508235503 58 248 10.4 13.0 0.00 0.12 0.10 84 1007.3
20260508234512 58 245 8.7 12.2 0.00 0.12 0.10 84 1007.5
20260508233506 59 241 9.6 13.0 0.00 0.12 0.10 84 1007.4
20260508232505 59 244 10.4 14.8 0.00 0.12 0.10 82 1007.6
20260508232008 59 225 12.2 14.8 0.00 0.12 0.10 80 1007.6
20260508231516 59 223 10.4 16.5 0.00 0.12 0.10 81 1007.6
20260508231005 60 225 12.2 16.5 0.00 0.12 0.10 79 1007.6
20260508230503 60 231 12.2 16.5 0.00 0.12 0.10 79 1007.5
20260508230015 60 246 12.2 14.8 0.00 0.12 0.10 78 1007.5
20260508225503 60 237 10.4 15.6 0.00 0.12 0.10 77 1007.6
20260508225004 60 233 12.2 15.6 0.00 0.12 0.10 76 1007.6
20260508224510 61 234 9.6 12.2 0.00 0.12 0.10 76 1007.6
20260508223504 61 240 8.7 12.2 0.00 0.12 0.10 77 1007.7
20260508223015 61 245 8.7 11.3 0.00 0.12 0.10 77 1007.7
20260508222505 61 248 7.8 11.3 0.00 0.12 0.10 78 1007.7
20260508222008 61 241 8.7 11.3 0.00 0.12 0.10 77 1007.8
20260508221515 60 245 7.8 11.3 0.00 0.12 0.10 77 1007.8
20260508221004 60 243 7.0 11.3 0.00 0.12 0.10 79 1007.8
20260508220504 60 236 8.7 12.2 0.00 0.12 0.10 78 1007.9
20260508220016 60 258 9.6 12.2 0.00 0.12 0.10 74 1008.0
20260508215504 60 247 7.8 10.4 0.00 0.12 0.10 76 1008.0
20260508215007 60 252 7.8 11.3 0.00 0.12 0.10 75 1008.0
20260508214516 60 258 7.8 11.3 0.00 0.12 0.10 74 1008.0
20260508214006 60 254 7.8 11.3 0.00 0.12 0.10 75 1008.0
20260508213506 60 252 7.8 11.3 0.00 0.12 0.10 75 1007.9
20260508213022 60 244 8.7 12.2 0.00 0.12 0.10 75 1007.9
20260508212504 60 248 9.6 12.2 0.00 0.12 0.10 73 1007.8
20260508212005 60 266 8.7 12.2 0.00 0.12 0.10 73 1007.9
20260508211518 60 270 9.6 13.0 0.00 0.12 0.10 74 1008.0
20260508211004 60 255 9.6 13.0 0.00 0.12 0.10 74 1007.9
20260508210505 60 260 9.6 13.0 0.00 0.12 0.10 78 1007.9
20260508210018 60 250 8.7 13.0 0.00 0.12 0.10 76 1007.9
20260508205506 60 260 10.4 13.0 0.00 0.12 0.10 74 1007.8
20260508205010 60 252 9.6 12.2 0.00 0.12 0.10 76 1007.9
20260508204520 60 250 9.6 12.2 0.00 0.12 0.10 75 1007.9
20260508204005 60 253 8.7 11.3 0.00 0.12 0.10 76 1008.0
20260508203504 60 259 8.7 11.3 0.00 0.12 0.10 75 1007.9
20260508203019 60 244 8.7 11.3 0.00 0.12 0.10 75 1008.0
20260508202505 60 237 9.6 11.3 0.00 0.12 0.10 73 1007.9
20260508202005 60 238 8.7 10.4 0.00 0.12 0.10 74 1007.9
20260508201524 60 255 7.8 11.3 0.00 0.12 0.10 79 1008.0
20260508201009 60 255 9.6 11.3 0.00 0.12 0.10 75 1008.2
20260508200504 60 240 7.8 11.3 0.00 0.12 0.10 72 1008.2
20260508200022 60 225 7.8 11.3 0.00 0.12 0.10 76 1007.9
20260508195504 60 226 9.6 11.3 0.00 0.12 0.10 76 1008.1
20260508195005 60 236 8.7 11.3 0.00 0.12 0.10 78 1008.3
20260508194526 60 221 7.8 12.2 0.00 0.12 0.10 81 1008.3
20260508194006 60 238 7.8 12.2 0.00 0.13 0.10 79 1008.3
20260508193505 60 241 8.7 11.3 0.00 0.13 0.10 79 1008.5
20260508193021 60 234 8.7 11.3 0.00 0.14 0.10 79 1008.6
20260508192505 60 246 9.6 12.2 0.00 0.14 0.10 78 1008.8
20260508192003 60 252 9.6 12.2 0.00 0.14 0.10 76 1008.7
20260508191516 60 255 9.6 12.2 0.00 0.14 0.10 76 1009.0
20260508191007 60 253 9.6 12.2 0.00 0.14 0.10 78 1009.1
20260508190505 61 245 9.6 13.9 0.00 0.14 0.10 78 1009.1
20260508190017 61 251 9.6 13.9 0.00 0.14 0.10 77 1008.9
20260508185504 61 253 10.4 14.8 0.00 0.14 0.10 78 1009.1
20260508185004 61 251 12.2 14.8 0.00 0.14 0.10 77 1009.1
20260508184519 60 251 10.4 14.8 0.01 0.14 0.10 81 1009.2
20260508184004 60 255 10.4 13.0 0.03 0.14 0.10 80 1009.2
20260508183503 60 255 8.7 13.0 0.06 0.14 0.10 81 1009.1
20260508183005 60 268 9.6 13.0 0.07 0.14 0.10 79 1009.2